West Baffin - southern half: Past 24 Hour Conditions

 

Rankin Inlet Airport

06:00 AM CDT 24 October 2014
This table is a summary of hourly weather conditions for the past 24 hours.
Date / Time
(CDT)
Wind(knots) Conditions Visibility(km) Pressure(kPa) Air tempC) Relative humidity(%) Dew pointC) Wind Chill
24 October 2014
6:00 ESE 25 gust 33 Cloudy 24 101.8 -2 74 -6 -11
5:00 ESE 22 gust 31 Cloudy 24 101.8 -2 75 -6 -10
4:00 ESE 25 gust 32 Cloudy 24 101.9 -2 73 -6 -11
3:00 ESE 21 gust 30 Cloudy 24 102.0 -2 74 -6 -10
2:00 ESE 22 gust 27 Cloudy 24 102.0 -2 72 -6 -10
1:00 ESE 24 Cloudy 24 102.1 -2 74 -6 -10
0:00 ESE 20 gust 27 Cloudy 24 102.1 -2 76 -6 -9
23 October 2014
23:00 ESE 24 gust 30 Cloudy 24 102.2 -2 71 -7 -11
22:00 ESE 19 gust 27 Cloudy 24 102.2 -2 75 -6 -10
21:00 ESE 16 gust 24 Cloudy 24 102.3 -2 73 -6 -9
20:00 E 15 gust 22 Cloudy 24 102.3 -2 74 -6 -9
19:00 E 16 gust 21 Light Snow 24 102.4 -2 76 -6 -9
18:00 E 15 Light Snow 24 102.4 -2 79 -5 -9
17:00 ESE 14 Light Snow 24 102.4 -2 77 -6 -9
16:00 ESE 12 gust 18 Light Snow 24 102.4 -2 76 -6 -8
15:00 E 16 gust 21 Light Snow 24 102.4 -2 78 -6 -9
14:00 E 15 Light Snow 24 102.4 -2 81 -5 -9
13:00 E 13 gust 20 Light Snow 24 102.4 -3 83 -5 -9
12:00 E 13 gust 21 Light Snow 24 102.4 -3 83 -5 -9
11:00 ENE 17 Light Snow 19 102.3 -3 84 -5 -10
10:00 E 19 gust 25 Light Snow 19 102.2 -3 84 -5 -11
9:00 ENE 17 Light Snow 16 102.3 -3 84 -5 -10
8:00 ENE 17 Light Snow 16 102.2 -3 90 -5 -11
7:00 ENE 15 gust 21 Light Snow 16 102.2 -3 90 -5 -10
6:00 ENE 14 gust 21 Cloudy 13 102.1 -3 91 -5 -10
 
Map of Arctic - Eastern Arctic marine weather areas Baker Lake Airport Chesterfield Inlet Airport Coral Harbour Airport Gjoa Haven Airport Kugaaruk Airport Rankin Inlet Airport Shepherd Bay Airport Whale Cove Airport Arctic Bay Brevoort Island Qikiqtarjuaq Airport Cape Dorset Airport Cape Dyer Cape Hooper Clyde Airport Grise Fiord Airport Hall Beach Airport Igloolik Airport Iqaluit Airport Longstaff Bluff Pangnirtung Airport Pond Inlet Airport Repulse Bay Airport Resolute Airport Resolution Island Rowley Island Airport Taloyoak Airport Wager Bay Akulivik Airport Ivujivik Airport Puvirnituq Airport Kangiqsujuaq Airport Kangirsuk Airport Quaqtaq Airport Tasiujaq Airport Cape Kakkiviak Cape Kiglapait Nain Airport Saglek Cape Mercy Kimmirut Airport Aupaluk Airport Salluit Airport Kangiqsualujjuaq Airport Fort Ross
Legend: buoyBuoy land stationLand Station